Time,TemperatureF,DewpointF,PressureIn,WindDirection,WindDirectionDegrees,WindSpeedMPH,WindSpeedGustMPH,Humidity,HourlyPrecipIn,Conditions,Clouds,dailyrainin,SoftwareType,DateUTC
2013-07-22 00:01:00,65.3,63.1,28.33,SE,135,1.0,3.0,93,0.00,,,0.00,meteohub,2013-07-22 04:01:00,
2013-07-22 00:02:00,65.1,63.0,28.33,SE,135,1.0,3.0,93,0.00,,,0.00,meteohub,2013-07-22 04:02:00,
2013-07-22 00:05:00,65.1,63.0,28.33,South,180,2.0,3.0,93,0.00,,,0.00,meteohub,2013-07-22 04:05:00,
2013-07-22 00:10:00,64.9,62.8,28.33,SE,135,2.0,3.0,93,0.00,,,0.00,meteohub,2013-07-22 04:10:00,
2013-07-22 00:15:00,64.8,62.6,28.33,South,180,2.0,3.0,93,0.00,,,0.00,meteohub,2013-07-22 04:15:00,
2013-07-22 00:20:00,64.6,62.4,28.34,SE,135,2.0,2.0,93,0.00,,,0.00,meteohub,2013-07-22 04:20:00,
2013-07-22 00:26:00,64.4,62.4,28.34,SE,135,0.0,2.0,93,0.00,,,0.00,meteohub,2013-07-22 04:26:00,
2013-07-22 00:31:00,64.2,61.9,28.34,NW,315,0.0,2.0,92,0.00,,,0.00,meteohub,2013-07-22 04:31:00,
2013-07-22 00:36:00,64.0,61.7,28.33,SW,225,0.0,2.0,92,0.00,,,0.00,meteohub,2013-07-22 04:36:00,
2013-07-22 00:41:00,63.9,61.5,28.33,South,180,0.0,1.0,92,0.00,,,0.00,meteohub,2013-07-22 04:41:00,
2013-07-22 00:46:00,63.9,61.9,28.33,East,90,2.0,2.0,93,0.00,,,0.00,meteohub,2013-07-22 04:46:00,
2013-07-22 00:51:00,63.9,61.9,28.33,East,90,2.0,3.0,93,0.00,,,0.00,meteohub,2013-07-22 04:51:00,
2013-07-22 00:56:00,63.7,61.7,28.33,East,90,0.0,3.0,93,0.00,,,0.00,meteohub,2013-07-22 04:56:00,
2013-07-22 01:02:00,63.5,61.5,28.33,South,180,0.0,3.0,93,0.00,,,0.00,meteohub,2013-07-22 05:02:00,
2013-07-22 01:07:00,63.3,61.3,28.33,South,180,0.0,3.0,93,0.00,,,0.00,meteohub,2013-07-22 05:07:00,
2013-07-22 01:12:00,63.1,61.2,28.33,South,180,0.0,1.0,93,0.00,,,0.00,meteohub,2013-07-22 05:12:00,
2013-07-22 01:17:00,63.0,61.0,28.34,SE,135,1.0,1.0,93,0.00,,,0.00,meteohub,2013-07-22 05:17:00,
2013-07-22 01:22:00,63.0,61.2,28.33,SE,135,0.0,1.0,94,0.00,,,0.00,meteohub,2013-07-22 05:22:00,
2013-07-22 01:27:00,62.8,60.8,28.33,SE,135,0.0,1.0,93,0.00,,,0.00,meteohub,2013-07-22 05:27:00,
2013-07-22 01:32:00,62.6,60.8,28.33,East,90,1.0,1.0,94,0.00,,,0.00,meteohub,2013-07-22 05:32:00,
2013-07-22 01:37:00,62.6,60.8,28.33,East,90,1.0,2.0,94,0.00,,,0.00,meteohub,2013-07-22 05:37:00,
2013-07-22 01:43:00,62.4,61.0,28.33,East,90,1.0,2.0,95,0.00,,,0.00,meteohub,2013-07-22 05:43:00,
2013-07-22 01:48:00,62.2,60.8,28.33,SW,225,0.0,2.0,95,0.00,,,0.00,meteohub,2013-07-22 05:48:00,
2013-07-22 01:53:00,62.1,60.6,28.32,SW,225,2.0,2.0,95,0.00,,,0.00,meteohub,2013-07-22 05:53:00,
2013-07-22 01:58:00,62.1,60.6,28.32,East,90,2.0,2.0,95,0.00,,,0.00,meteohub,2013-07-22 05:58:00,
2013-07-22 02:03:00,61.9,60.4,28.32,East,90,2.0,2.0,95,0.00,,,0.00,meteohub,2013-07-22 06:03:00,
2013-07-22 02:08:00,61.9,60.4,28.32,SE,135,1.0,2.0,95,0.00,,,0.00,meteohub,2013-07-22 06:08:00,
2013-07-22 02:13:00,61.7,60.3,28.32,South,180,2.0,2.0,95,0.00,,,0.00,meteohub,2013-07-22 06:13:00,
2013-07-22 02:18:00,61.5,60.1,28.32,South,180,0.0,2.0,95,0.00,,,0.00,meteohub,2013-07-22 06:18:00,
2013-07-22 02:23:00,61.5,60.1,28.32,SE,135,0.0,2.0,95,0.00,,,0.00,meteohub,2013-07-22 06:23:00,
2013-07-22 02:28:00,61.3,59.9,28.32,NE,45,2.0,2.0,95,0.00,,,0.00,meteohub,2013-07-22 06:28:00,
2013-07-22 02:33:00,61.3,59.9,28.32,NE,45,2.0,2.0,95,0.00,,,0.00,meteohub,2013-07-22 06:33:00,
2013-07-22 02:38:00,61.3,59.9,28.32,NE,45,1.0,2.0,95,0.00,,,0.00,meteohub,2013-07-22 06:38:00,
2013-07-22 02:43:00,61.2,59.7,28.32,NE,45,0.0,2.0,95,0.00,,,0.00,meteohub,2013-07-22 06:43:00,
2013-07-22 02:48:00,61.2,59.7,28.32,SW,225,0.0,2.0,95,0.00,,,0.00,meteohub,2013-07-22 06:48:00,
2013-07-22 02:54:00,61.0,59.5,28.32,West,270,0.0,1.0,95,0.00,,,0.00,meteohub,2013-07-22 06:54:00,
2013-07-22 02:59:00,61.0,59.5,28.32,South,180,0.0,0.0,95,0.00,,,0.00,meteohub,2013-07-22 06:59:00,
2013-07-22 03:04:00,61.0,59.9,28.32,ENE,68,2.0,0.0,96,0.00,,,0.00,meteohub,2013-07-22 07:04:00,
2013-07-22 03:09:00,60.8,59.7,28.32,South,180,0.0,2.0,96,0.00,,,0.00,meteohub,2013-07-22 07:09:00,
2013-07-22 03:14:00,60.8,59.7,28.32,South,180,1.0,2.0,96,0.00,,,0.00,meteohub,2013-07-22 07:14:00,
2013-07-22 03:19:00,60.8,59.7,28.32,South,180,0.0,2.0,96,0.00,,,0.00,meteohub,2013-07-22 07:19:00,
2013-07-22 03:24:00,60.6,59.7,28.32,East,90,2.0,2.0,97,0.00,,,0.00,meteohub,2013-07-22 07:24:00,
2013-07-22 03:29:00,60.6,59.7,28.32,NW,315,1.0,2.0,97,0.00,,,0.00,meteohub,2013-07-22 07:29:00,
2013-07-22 03:34:00,60.4,59.5,28.32,SE,135,1.0,2.0,97,0.00,,,0.00,meteohub,2013-07-22 07:34:00,
2013-07-22 03:39:00,60.3,59.4,28.32,East,90,2.0,2.0,97,0.00,,,0.00,meteohub,2013-07-22 07:39:00,
2013-07-22 03:44:00,60.1,59.2,28.31,East,90,0.0,2.0,97,0.00,,,0.00,meteohub,2013-07-22 07:44:00,
2013-07-22 03:49:00,59.9,59.0,28.32,South,180,2.0,2.0,97,0.00,,,0.00,meteohub,2013-07-22 07:49:00,
2013-07-22 03:54:00,59.9,59.0,28.32,South,180,2.0,2.0,97,0.00,,,0.00,meteohub,2013-07-22 07:54:00,
2013-07-22 04:00:00,59.7,58.8,28.32,South,180,2.0,2.0,97,0.00,,,0.00,meteohub,2013-07-22 08:00:00,
2013-07-22 04:05:00,59.7,58.8,28.31,South,180,2.0,3.0,97,0.00,,,0.00,meteohub,2013-07-22 08:05:00,
2013-07-22 04:10:00,59.5,58.6,28.31,SE,135,2.0,3.0,97,0.00,,,0.00,meteohub,2013-07-22 08:10:00,
2013-07-22 04:15:00,59.5,58.6,28.31,SE,135,2.0,3.0,97,0.00,,,0.00,meteohub,2013-07-22 08:15:00,
2013-07-22 04:20:00,59.5,58.6,28.32,NW,315,0.0,2.0,97,0.00,,,0.00,meteohub,2013-07-22 08:20:00,
2013-07-22 04:25:00,59.5,58.6,28.31,West,270,2.0,3.0,97,0.00,,,0.00,meteohub,2013-07-22 08:25:00,
2013-07-22 04:30:00,59.5,58.6,28.31,SW,225,2.0,3.0,97,0.00,,,0.00,meteohub,2013-07-22 08:30:00,
2013-07-22 04:35:00,59.7,58.8,28.31,South,180,3.0,4.0,97,0.00,,,0.00,meteohub,2013-07-22 08:35:00,
2013-07-22 04:40:00,59.5,59.0,28.31,SW,225,3.0,4.0,98,0.00,,,0.00,meteohub,2013-07-22 08:40:00,
2013-07-22 04:45:00,59.5,59.0,28.32,South,180,2.0,4.0,98,0.00,,,0.00,meteohub,2013-07-22 08:45:00,
2013-07-22 04:50:00,59.5,59.0,28.32,SE,135,2.0,4.0,98,0.00,,,0.00,meteohub,2013-07-22 08:50:00,
2013-07-22 04:55:00,59.7,59.2,28.32,East,90,1.0,4.0,98,0.00,,,0.00,meteohub,2013-07-22 08:55:00,
2013-07-22 05:00:00,59.7,59.2,28.32,SW,225,1.0,2.0,98,0.00,,,0.00,meteohub,2013-07-22 09:00:00,
2013-07-22 05:06:00,59.9,59.4,28.32,South,180,2.0,2.0,98,0.00,,,0.00,meteohub,2013-07-22 09:06:00,
2013-07-22 05:11:00,59.9,59.4,28.32,South,180,2.0,2.0,98,0.00,,,0.00,meteohub,2013-07-22 09:11:00,
2013-07-22 05:16:00,60.1,59.5,28.32,SE,135,1.0,2.0,98,0.00,,,0.00,meteohub,2013-07-22 09:16:00,
2013-07-22 05:21:00,60.1,59.5,28.31,SW,225,2.0,2.0,98,0.00,,,0.00,meteohub,2013-07-22 09:21:00,
2013-07-22 05:26:00,60.3,59.7,28.31,NW,315,2.0,2.0,98,0.00,,,0.00,meteohub,2013-07-22 09:26:00,
2013-07-22 05:31:00,60.3,59.7,28.32,South,180,3.0,3.0,98,0.00,,,0.00,meteohub,2013-07-22 09:31:00,
2013-07-22 05:36:00,60.3,59.7,28.32,SE,135,2.0,4.0,98,0.00,,,0.00,meteohub,2013-07-22 09:36:00,
2013-07-22 05:41:00,60.3,59.4,28.32,South,180,2.0,4.0,97,0.00,,,0.00,meteohub,2013-07-22 09:41:00,
2013-07-22 05:46:00,60.3,59.4,28.32,NW,315,2.0,4.0,97,0.00,,,0.00,meteohub,2013-07-22 09:46:00,
2013-07-22 05:51:00,60.3,59.4,28.32,NW,315,0.0,2.0,97,0.00,,,0.00,meteohub,2013-07-22 09:51:00,
2013-07-22 05:56:00,60.3,59.4,28.33,SW,225,2.0,2.0,97,0.00,,,0.00,meteohub,2013-07-22 09:56:00,
2013-07-22 06:01:00,60.3,59.4,28.32,SE,135,0.0,2.0,97,0.00,,,0.00,meteohub,2013-07-22 10:01:00,
2013-07-22 06:07:00,60.4,59.5,28.32,SE,135,0.0,2.0,97,0.00,,,0.00,meteohub,2013-07-22 10:07:00,
2013-07-22 06:12:00,60.6,59.7,28.33,West,270,0.0,2.0,97,0.00,,,0.00,meteohub,2013-07-22 10:12:00,
2013-07-22 06:17:00,60.6,59.7,28.33,NE,45,3.0,3.0,97,0.00,,,0.00,meteohub,2013-07-22 10:17:00,
2013-07-22 06:22:00,60.8,59.7,28.33,NW,315,3.0,4.0,96,0.00,,,0.00,meteohub,2013-07-22 10:22:00,
2013-07-22 06:27:00,60.8,59.7,28.33,East,90,4.0,5.0,96,0.00,,,0.00,meteohub,2013-07-22 10:27:00,
2013-07-22 06:32:00,61.0,59.9,28.33,North,0,4.0,5.0,96,0.00,,,0.00,meteohub,2013-07-22 10:32:00,
2013-07-22 06:37:00,61.2,60.1,28.34,NE,45,3.0,5.0,96,0.00,,,0.00,meteohub,2013-07-22 10:37:00,
2013-07-22 06:42:00,61.3,60.3,28.33,NNE,23,4.0,4.0,96,0.00,,,0.00,meteohub,2013-07-22 10:42:00,
2013-07-22 06:47:00,61.3,60.3,28.33,NE,45,3.0,4.0,96,0.00,,,0.00,meteohub,2013-07-22 10:47:00,
2013-07-22 06:52:00,61.5,60.6,28.34,North,0,4.0,4.0,97,0.00,,,0.00,meteohub,2013-07-22 10:52:00,
2013-07-22 06:57:00,61.7,60.8,28.33,NE,45,3.0,4.0,97,0.00,,,0.00,meteohub,2013-07-22 10:57:00,
2013-07-22 07:02:00,61.9,61.0,28.33,NE,45,3.0,4.0,97,0.00,,,0.00,meteohub,2013-07-22 11:02:00,
2013-07-22 07:07:00,62.4,61.5,28.33,NE,45,6.0,6.0,97,0.00,,,0.00,meteohub,2013-07-22 11:07:00,
2013-07-22 07:12:00,62.4,61.5,28.33,NE,45,2.0,7.0,97,0.00,,,0.00,meteohub,2013-07-22 11:12:00,
2013-07-22 07:18:00,62.6,61.2,28.33,SE,135,2.0,7.0,95,0.00,,,0.00,meteohub,2013-07-22 11:18:00,
2013-07-22 07:23:00,62.8,61.3,28.33,SE,135,1.0,7.0,95,0.00,,,0.00,meteohub,2013-07-22 11:23:00,
2013-07-22 07:28:00,63.1,61.7,28.33,NE,45,1.0,4.0,95,0.00,,,0.00,meteohub,2013-07-22 11:28:00,
2013-07-22 07:33:00,63.3,61.9,28.33,NE,45,2.0,2.0,95,0.00,,,0.00,meteohub,2013-07-22 11:33:00,
2013-07-22 07:38:00,63.5,61.7,28.33,NE,45,0.0,2.0,94,0.00,,,0.00,meteohub,2013-07-22 11:38:00,
2013-07-22 07:43:00,63.9,62.1,28.33,NE,45,0.0,2.0,94,0.00,,,0.00,meteohub,2013-07-22 11:43:00,
2013-07-22 07:48:00,64.2,62.2,28.33,East,90,1.0,2.0,93,0.00,,,0.00,meteohub,2013-07-22 11:48:00,
2013-07-22 07:53:00,64.8,62.6,28.33,NE,45,2.0,2.0,93,0.00,,,0.00,meteohub,2013-07-22 11:53:00,
2013-07-22 07:58:00,65.1,62.4,28.33,East,90,0.0,2.0,91,0.00,,,0.00,meteohub,2013-07-22 11:58:00,
2013-07-22 08:03:00,65.3,62.2,28.33,South,180,2.0,2.0,90,0.00,,,0.00,meteohub,2013-07-22 12:03:00,
2013-07-22 08:08:00,65.7,62.2,28.33,SE,135,0.0,2.0,89,0.00,,,0.00,meteohub,2013-07-22 12:08:00,
2013-07-22 08:13:00,66.0,62.6,28.33,NW,315,1.0,2.0,89,0.00,,,0.00,meteohub,2013-07-22 12:13:00,
2013-07-22 08:19:00,66.4,62.8,28.33,SE,135,0.0,2.0,88,0.00,,,0.00,meteohub,2013-07-22 12:19:00,
2013-07-22 08:24:00,66.7,62.4,28.33,NE,45,2.0,2.0,86,0.00,,,0.00,meteohub,2013-07-22 12:24:00,
2013-07-22 08:29:00,66.9,62.2,28.33,North,0,2.0,2.0,85,0.00,,,0.00,meteohub,2013-07-22 12:29:00,
2013-07-22 08:34:00,67.1,62.1,28.33,NE,45,2.0,2.0,84,0.00,,,0.00,meteohub,2013-07-22 12:34:00,
2013-07-22 08:39:00,67.3,61.9,28.33,East,90,2.0,2.0,83,0.00,,,0.00,meteohub,2013-07-22 12:39:00,
2013-07-22 08:44:00,67.5,61.7,28.33,SE,135,2.0,3.0,82,0.00,,,0.00,meteohub,2013-07-22 12:44:00,
2013-07-22 08:49:00,67.5,61.7,28.32,East,90,2.0,3.0,82,0.00,,,0.00,meteohub,2013-07-22 12:49:00,
2013-07-22 08:54:00,67.8,61.7,28.32,SE,135,2.0,3.0,81,0.00,,,0.00,meteohub,2013-07-22 12:54:00,
2013-07-22 08:59:00,68.5,62.1,28.32,SE,135,2.0,3.0,80,0.00,,,0.00,meteohub,2013-07-22 12:59:00,
2013-07-22 09:04:00,69.1,62.6,28.32,NE,45,2.0,3.0,80,0.00,,,0.00,meteohub,2013-07-22 13:04:00,
2013-07-22 09:09:00,69.4,61.9,28.32,East,90,2.0,3.0,77,0.00,,,0.00,meteohub,2013-07-22 13:09:00,
2013-07-22 09:14:00,69.6,62.1,28.32,SE,135,2.0,4.0,77,0.00,,,0.00,meteohub,2013-07-22 13:14:00,
2013-07-22 09:19:00,70.2,62.2,28.32,SE,135,3.0,4.0,76,0.00,,,0.00,meteohub,2013-07-22 13:19:00,
2013-07-22 09:24:00,71.1,62.4,28.32,SE,135,3.0,4.0,74,0.00,,,0.00,meteohub,2013-07-22 13:24:00,
2013-07-22 09:30:00,71.2,61.3,28.32,South,180,5.0,5.0,71,0.00,,,0.00,meteohub,2013-07-22 13:30:00,
2013-07-22 09:35:00,71.2,61.0,28.32,NE,45,4.0,5.0,70,0.00,,,0.00,meteohub,2013-07-22 13:35:00,
2013-07-22 09:40:00,71.4,61.2,28.32,SSE,158,5.0,5.0,70,0.00,,,0.00,meteohub,2013-07-22 13:40:00,
2013-07-22 09:45:00,71.4,61.5,28.32,ESE,113,4.0,5.0,71,0.00,,,0.00,meteohub,2013-07-22 13:45:00,
2013-07-22 09:50:00,71.4,61.9,28.32,East,90,4.0,5.0,72,0.00,,,0.00,meteohub,2013-07-22 13:50:00,
2013-07-22 09:55:00,71.8,61.9,28.31,SE,135,4.0,6.0,71,0.00,,,0.00,meteohub,2013-07-22 13:55:00,
2013-07-22 10:00:00,72.1,62.2,28.31,South,180,2.0,6.0,71,0.00,,,0.00,meteohub,2013-07-22 14:00:00,
2013-07-22 10:05:00,72.7,62.8,28.31,SW,225,0.0,5.0,71,0.00,,,0.00,meteohub,2013-07-22 14:05:00,
2013-07-22 10:10:00,73.2,63.3,28.31,West,270,2.0,4.0,71,0.00,,,0.00,meteohub,2013-07-22 14:10:00,
2013-07-22 10:15:00,73.8,64.2,28.31,SW,225,1.0,3.0,72,0.00,,,0.00,meteohub,2013-07-22 14:15:00,
2013-07-22 10:20:00,73.8,64.2,28.31,SW,225,1.0,3.0,72,0.00,,,0.00,meteohub,2013-07-22 14:20:00,
2013-07-22 10:25:00,75.7,63.5,28.31,NE,45,3.0,3.0,66,0.00,,,0.00,meteohub,2013-07-22 14:25:00,
2013-07-22 10:31:00,75.7,63.5,28.31,NE,45,3.0,3.0,66,0.00,,,0.00,meteohub,2013-07-22 14:31:00,
2013-07-22 10:36:00,78.3,62.8,28.31,NE,45,4.0,4.0,59,0.00,,,0.00,meteohub,2013-07-22 14:36:00,
2013-07-22 10:41:00,78.1,61.2,28.31,East,90,4.0,4.0,56,0.00,,,0.00,meteohub,2013-07-22 14:41:00,
2013-07-22 10:46:00,77.2,60.8,28.31,ESE,113,4.0,7.0,57,0.00,,,0.00,meteohub,2013-07-22 14:46:00,
2013-07-22 10:51:00,76.8,61.0,28.31,East,90,3.0,8.0,58,0.00,,,0.00,meteohub,2013-07-22 14:51:00,
2013-07-22 10:56:00,77.4,61.9,28.31,South,180,5.0,8.0,59,0.00,,,0.00,meteohub,2013-07-22 14:56:00,
2013-07-22 11:01:00,77.7,62.2,28.31,SE,135,4.0,8.0,59,0.00,,,0.00,meteohub,2013-07-22 15:01:00,
2013-07-22 11:06:00,77.7,62.2,28.31,SE,135,4.0,5.0,59,0.00,,,0.00,meteohub,2013-07-22 15:06:00,
2013-07-22 11:11:00,77.7,62.2,28.31,SE,135,4.0,5.0,59,0.00,,,0.00,meteohub,2013-07-22 15:11:00,
2013-07-22 11:16:00,79.0,61.5,28.31,South,180,2.0,4.0,55,0.00,,,0.00,meteohub,2013-07-22 15:16:00,
2013-07-22 11:21:00,79.0,59.4,28.30,South,180,5.0,5.0,51,0.00,,,0.00,meteohub,2013-07-22 15:21:00,
2013-07-22 11:26:00,78.3,60.3,28.31,SE,135,4.0,6.0,54,0.00,,,0.00,meteohub,2013-07-22 15:26:00,
2013-07-22 11:31:00,78.1,59.5,28.30,South,180,3.0,6.0,53,0.00,,,0.00,meteohub,2013-07-22 15:31:00,
2013-07-22 11:37:00,77.7,59.7,28.30,SW,225,2.0,6.0,54,0.00,,,0.00,meteohub,2013-07-22 15:37:00,
2013-07-22 11:42:00,77.4,57.7,28.30,East,90,3.0,6.0,51,0.00,,,0.00,meteohub,2013-07-22 15:42:00,
2013-07-22 11:47:00,77.2,58.6,28.30,ENE,68,6.0,8.0,53,0.00,,,0.00,meteohub,2013-07-22 15:47:00,
2013-07-22 11:52:00,77.2,59.2,28.30,East,90,7.0,8.0,54,0.00,,,0.00,meteohub,2013-07-22 15:52:00,
2013-07-22 11:57:00,77.7,59.2,28.30,NW,315,4.0,8.0,53,0.00,,,0.00,meteohub,2013-07-22 15:57:00,
2013-07-22 12:02:00,77.7,59.2,28.30,East,90,2.0,7.0,53,0.00,,,0.00,meteohub,2013-07-22 16:02:00,
2013-07-22 12:07:00,78.4,58.3,28.30,East,90,3.0,7.0,50,0.00,,,0.00,meteohub,2013-07-22 16:07:00,
2013-07-22 12:12:00,79.0,56.5,28.30,East,90,2.0,9.0,46,0.00,,,0.00,meteohub,2013-07-22 16:12:00,
2013-07-22 12:17:00,79.0,57.6,28.30,South,180,2.0,9.0,48,0.00,,,0.00,meteohub,2013-07-22 16:17:00,
2013-07-22 12:22:00,78.8,56.8,28.30,South,180,4.0,9.0,47,0.00,,,0.00,meteohub,2013-07-22 16:22:00,
2013-07-22 12:27:00,78.4,57.2,28.30,SE,135,6.0,9.0,48,0.00,,,0.00,meteohub,2013-07-22 16:27:00,
2013-07-22 12:32:00,78.3,57.0,28.30,SE,135,4.0,9.0,48,0.00,,,0.00,meteohub,2013-07-22 16:32:00,
2013-07-22 12:37:00,78.6,56.7,28.30,SE,135,3.0,9.0,47,0.00,,,0.00,meteohub,2013-07-22 16:37:00,
2013-07-22 12:43:00,78.8,53.8,28.30,SW,225,2.0,6.0,42,0.00,,,0.00,meteohub,2013-07-22 16:43:00,
2013-07-22 12:48:00,79.0,53.2,28.30,SE,135,2.0,6.0,41,0.00,,,0.00,meteohub,2013-07-22 16:48:00,
2013-07-22 12:53:00,78.8,53.8,28.30,East,90,6.0,6.0,42,0.00,,,0.00,meteohub,2013-07-22 16:53:00,
2013-07-22 12:58:00,78.4,54.1,28.30,SE,135,3.0,7.0,43,0.00,,,0.00,meteohub,2013-07-22 16:58:00,
2013-07-22 13:03:00,78.3,53.2,28.29,SSE,158,5.0,7.0,42,0.00,,,0.00,meteohub,2013-07-22 17:03:00,
2013-07-22 13:08:00,78.1,53.8,28.29,SW,225,4.0,7.0,43,0.00,,,0.00,meteohub,2013-07-22 17:08:00,
2013-07-22 13:13:00,78.1,53.8,28.28,East,90,4.0,7.0,43,0.00,,,0.00,meteohub,2013-07-22 17:13:00,
2013-07-22 13:18:00,78.8,52.5,28.28,East,90,4.0,6.0,40,0.00,,,0.00,meteohub,2013-07-22 17:18:00,
2013-07-22 13:23:00,79.0,53.2,28.27,East,90,4.0,6.0,41,0.00,,,0.00,meteohub,2013-07-22 17:23:00,
2013-07-22 13:28:00,80.2,55.8,28.28,East,90,3.0,6.0,43,0.00,,,0.00,meteohub,2013-07-22 17:28:00,
2013-07-22 13:34:00,81.0,52.9,28.28,NE,45,2.0,6.0,38,0.00,,,0.00,meteohub,2013-07-22 17:34:00,
2013-07-22 13:39:00,81.7,50.5,28.27,SE,135,2.0,6.0,34,0.00,,,0.00,meteohub,2013-07-22 17:39:00,
2013-07-22 13:44:00,82.2,51.1,28.27,East,90,4.0,6.0,34,0.00,,,0.00,meteohub,2013-07-22 17:44:00,
2013-07-22 13:49:00,82.0,49.3,28.28,SW,225,4.0,6.0,32,0.00,,,0.00,meteohub,2013-07-22 17:49:00,
2013-07-22 13:54:00,81.1,49.3,28.28,SE,135,3.0,5.0,33,0.00,,,0.00,meteohub,2013-07-22 17:54:00,
2013-07-22 14:00:00,80.6,52.7,28.28,SW,225,3.0,5.0,38,0.00,,,0.00,meteohub,2013-07-22 18:00:00,
2013-07-22 14:05:00,80.6,52.7,28.27,SW,225,3.0,7.0,38,0.00,,,0.00,meteohub,2013-07-22 18:05:00,
2013-07-22 14:11:00,80.2,53.8,28.27,NE,45,6.0,7.0,40,0.00,,,0.00,meteohub,2013-07-22 18:11:00,
2013-07-22 14:16:00,80.6,54.7,28.27,SE,135,5.0,8.0,41,0.00,,,0.00,meteohub,2013-07-22 18:16:00,
2013-07-22 14:21:00,80.4,55.2,28.27,SSE,158,3.0,8.0,42,0.00,,,0.00,meteohub,2013-07-22 18:21:00,
2013-07-22 14:22:00,80.4,56.5,28.27,East,90,6.0,8.0,44,0.00,,,0.00,meteohub,2013-07-22 18:22:00,
2013-07-22 14:26:00,80.2,58.1,28.27,East,90,4.0,8.0,47,0.00,,,0.00,meteohub,2013-07-22 18:26:00,
2013-07-22 14:28:00,79.9,58.5,28.27,South,180,4.0,8.0,48,0.00,,,0.00,meteohub,2013-07-22 18:28:00,
2013-07-22 14:32:00,79.7,59.4,28.27,South,180,8.0,8.0,50,0.00,,,0.00,meteohub,2013-07-22 18:32:00,
2013-07-22 14:37:00,79.2,58.3,28.27,SW,225,3.0,9.0,49,0.00,,,0.00,meteohub,2013-07-22 18:37:00,
2013-07-22 14:42:00,79.0,56.5,28.26,South,180,4.0,9.0,46,0.00,,,0.00,meteohub,2013-07-22 18:42:00,
2013-07-22 14:48:00,79.0,57.6,28.27,East,90,5.0,9.0,48,0.00,,,0.00,meteohub,2013-07-22 18:48:00,
2013-07-22 14:53:00,79.0,57.0,28.26,SSE,158,5.0,7.0,47,0.00,,,0.00,meteohub,2013-07-22 18:53:00,
2013-07-22 14:58:00,79.0,57.0,28.26,SE,135,2.0,7.0,47,0.00,,,0.00,meteohub,2013-07-22 18:58:00,
2013-07-22 15:03:00,79.7,59.9,28.26,South,180,4.0,7.0,51,0.00,,,0.00,meteohub,2013-07-22 19:03:00,
2013-07-22 15:09:00,80.1,58.1,28.26,SSE,158,6.0,7.0,47,0.00,,,0.00,meteohub,2013-07-22 19:09:00,
2013-07-22 15:14:00,80.2,59.9,28.26,SE,135,3.0,8.0,50,0.00,,,0.00,meteohub,2013-07-22 19:14:00,
2013-07-22 15:19:00,80.1,60.3,28.25,South,180,5.0,8.0,51,0.00,,,0.00,meteohub,2013-07-22 19:19:00,
2013-07-22 15:25:00,80.2,61.5,28.25,SE,135,5.0,8.0,53,0.00,,,0.00,meteohub,2013-07-22 19:25:00,
2013-07-22 15:30:00,81.0,61.2,28.25,West,270,4.0,7.0,51,0.00,,,0.00,meteohub,2013-07-22 19:30:00,
2013-07-22 15:35:00,81.1,62.4,28.25,East,90,4.0,7.0,53,0.00,,,0.00,meteohub,2013-07-22 19:35:00,
2013-07-22 15:40:00,81.0,62.8,28.24,South,180,5.0,5.0,54,0.00,,,0.00,meteohub,2013-07-22 19:40:00,
2013-07-22 15:46:00,80.6,63.0,28.25,SW,225,3.0,5.0,55,0.00,,,0.00,meteohub,2013-07-22 19:46:00,
2013-07-22 15:51:00,80.6,63.5,28.24,NE,45,2.0,5.0,56,0.00,,,0.00,meteohub,2013-07-22 19:51:00,
2013-07-22 15:57:00,80.1,63.5,28.24,SW,225,2.0,5.0,57,0.00,,,0.00,meteohub,2013-07-22 19:57:00,
2013-07-22 16:02:00,79.9,64.2,28.24,SW,225,3.0,5.0,59,0.00,,,0.00,meteohub,2013-07-22 20:02:00,
2013-07-22 16:07:00,79.9,64.2,28.24,SW,225,3.0,5.0,59,0.00,,,0.00,meteohub,2013-07-22 20:07:00,
2013-07-22 16:12:00,80.2,63.1,28.24,SSE,158,7.0,8.0,56,0.00,,,0.00,meteohub,2013-07-22 20:12:00,
2013-07-22 16:17:00,79.9,62.8,28.23,SW,225,2.0,8.0,56,0.00,,,0.00,meteohub,2013-07-22 20:17:00,
2013-07-22 16:18:00,79.7,62.6,28.24,SSE,158,3.0,8.0,56,0.00,,,0.00,meteohub,2013-07-22 20:18:00,
2013-07-22 16:24:00,79.5,62.4,28.23,SSW,203,6.0,8.0,56,0.00,,,0.00,meteohub,2013-07-22 20:24:00,
2013-07-22 16:29:00,79.5,62.4,28.23,South,180,5.0,7.0,56,0.00,,,0.00,meteohub,2013-07-22 20:29:00,
2013-07-22 16:34:00,80.2,63.1,28.22,South,180,8.0,8.0,56,0.00,,,0.00,meteohub,2013-07-22 20:34:00,
2013-07-22 16:39:00,80.1,63.0,28.22,SE,135,3.0,8.0,56,0.00,,,0.00,meteohub,2013-07-22 20:39:00,
2013-07-22 16:43:00,80.6,63.0,28.22,SSE,158,5.0,8.0,55,0.00,,,0.00,meteohub,2013-07-22 20:43:00,
2013-07-22 16:48:00,80.6,63.0,28.22,NE,45,2.0,8.0,55,0.00,,,0.00,meteohub,2013-07-22 20:48:00,
2013-07-22 16:53:00,80.6,63.0,28.21,SE,135,6.0,10.0,55,0.00,,,0.00,meteohub,2013-07-22 20:53:00,
2013-07-22 16:58:00,80.2,64.0,28.22,SE,135,4.0,10.0,58,0.00,,,0.00,meteohub,2013-07-22 20:58:00,
2013-07-22 17:03:00,80.2,64.0,28.22,South,180,2.0,10.0,58,0.00,,,0.00,meteohub,2013-07-22 21:03:00,
2013-07-22 17:08:00,80.2,64.6,28.22,SW,225,4.0,6.0,59,0.00,,,0.00,meteohub,2013-07-22 21:08:00,
2013-07-22 17:13:00,80.2,64.6,28.21,SSE,158,2.0,6.0,59,0.00,,,0.00,meteohub,2013-07-22 21:13:00,
2013-07-22 17:18:00,79.9,64.8,28.22,SE,135,5.0,6.0,60,0.00,,,0.00,meteohub,2013-07-22 21:18:00,
2013-07-22 17:24:00,78.8,64.2,28.21,SE,135,4.0,6.0,61,0.00,,,0.00,meteohub,2013-07-22 21:24:00,
2013-07-22 17:29:00,78.4,64.8,28.21,South,180,4.0,6.0,63,0.00,,,0.00,meteohub,2013-07-22 21:29:00,
2013-07-22 17:34:00,78.4,65.3,28.21,NE,45,2.0,6.0,64,0.00,,,0.00,meteohub,2013-07-22 21:34:00,
2013-07-22 17:39:00,78.1,65.3,28.21,NE,45,4.0,5.0,65,0.00,,,0.00,meteohub,2013-07-22 21:39:00,
2013-07-22 17:44:00,77.7,64.9,28.20,SE,135,2.0,5.0,65,0.00,,,0.00,meteohub,2013-07-22 21:44:00,
2013-07-22 17:49:00,77.7,65.5,28.21,NW,315,4.0,7.0,66,0.00,,,0.00,meteohub,2013-07-22 21:49:00,
2013-07-22 17:54:00,77.5,65.3,28.21,East,90,5.0,7.0,66,0.00,,,0.00,meteohub,2013-07-22 21:54:00,
2013-07-22 17:59:00,77.4,65.1,28.21,ESE,113,6.0,7.0,66,0.00,,,0.00,meteohub,2013-07-22 21:59:00,
2013-07-22 18:04:00,77.4,65.1,28.21,South,180,4.0,7.0,66,0.00,,,0.00,meteohub,2013-07-22 22:04:00,
2013-07-22 18:09:00,77.0,65.1,28.21,South,180,4.0,7.0,67,0.00,,,0.00,meteohub,2013-07-22 22:09:00,
2013-07-22 18:14:00,76.8,65.8,28.21,SE,135,3.0,8.0,69,0.00,,,0.00,meteohub,2013-07-22 22:14:00,
2013-07-22 18:19:00,76.5,65.5,28.21,SE,135,5.0,8.0,69,0.00,,,0.00,meteohub,2013-07-22 22:19:00,
2013-07-22 18:25:00,76.3,65.8,28.21,SE,135,4.0,8.0,70,0.00,,,0.00,meteohub,2013-07-22 22:25:00,
2013-07-22 18:30:00,75.9,65.8,28.21,SW,225,3.0,8.0,71,0.00,,,0.00,meteohub,2013-07-22 22:30:00,
2013-07-22 18:35:00,76.1,66.0,28.21,SE,135,3.0,8.0,71,0.00,,,0.00,meteohub,2013-07-22 22:35:00,
2013-07-22 18:40:00,75.9,66.2,28.20,SE,135,3.0,8.0,72,0.00,,,0.00,meteohub,2013-07-22 22:40:00,
2013-07-22 18:45:00,75.9,66.2,28.21,SE,135,2.0,6.0,72,0.00,,,0.00,meteohub,2013-07-22 22:45:00,
2013-07-22 18:50:00,75.7,66.0,28.21,East,90,4.0,6.0,72,0.00,,,0.00,meteohub,2013-07-22 22:50:00,
2013-07-22 18:55:00,75.6,65.8,28.20,East,90,4.0,6.0,72,0.00,,,0.00,meteohub,2013-07-22 22:55:00,
2013-07-22 19:00:00,75.4,65.7,28.20,East,90,3.0,6.0,72,0.00,,,0.00,meteohub,2013-07-22 23:00:00,
2013-07-22 19:05:00,75.2,66.0,28.20,NE,45,4.0,6.0,73,0.00,,,0.00,meteohub,2013-07-22 23:05:00,
2013-07-22 19:10:00,75.2,66.0,28.20,East,90,5.0,5.0,73,0.00,,,0.00,meteohub,2013-07-22 23:10:00,
2013-07-22 19:15:00,74.8,66.7,28.21,SSE,158,4.0,6.0,76,0.00,,,0.00,meteohub,2013-07-22 23:15:00,
2013-07-22 19:20:00,74.7,66.6,28.20,ENE,68,4.0,6.0,76,0.00,,,0.00,meteohub,2013-07-22 23:20:00,
2013-07-22 19:25:00,74.5,66.7,28.20,East,90,2.0,6.0,77,0.00,,,0.00,meteohub,2013-07-22 23:25:00,
2013-07-22 19:31:00,74.5,66.7,28.20,ESE,113,2.0,7.0,77,0.00,,,0.00,meteohub,2013-07-22 23:31:00,
2013-07-22 19:36:00,74.3,66.9,28.20,ENE,68,2.0,7.0,78,0.00,,,0.00,meteohub,2013-07-22 23:36:00,
2013-07-22 19:41:00,74.3,66.9,28.20,SE,135,1.0,7.0,78,0.00,,,0.00,meteohub,2013-07-22 23:41:00,
2013-07-22 19:46:00,74.1,66.7,28.20,East,90,2.0,5.0,78,0.00,,,0.00,meteohub,2013-07-22 23:46:00,
2013-07-22 19:51:00,73.9,67.1,28.20,SE,135,3.0,4.0,79,0.00,,,0.00,meteohub,2013-07-22 23:51:00,
2013-07-22 19:56:00,73.9,67.1,28.20,South,180,5.0,5.0,79,0.00,,,0.00,meteohub,2013-07-22 23:56:00,
2013-07-22 20:01:00,73.8,66.4,28.20,ESE,113,4.0,11.0,78,0.00,,,0.00,meteohub,2013-07-23 00:01:00,
2013-07-22 20:06:00,73.2,66.0,28.21,ENE,68,3.0,11.0,78,0.04,,,0.04,meteohub,2013-07-23 00:06:00,
2013-07-22 20:11:00,71.8,65.3,28.21,NE,45,2.0,11.0,80,0.09,,,0.09,meteohub,2013-07-23 00:11:00,
2013-07-22 20:16:00,70.7,66.0,28.21,SE,135,5.0,11.0,85,0.12,,,0.12,meteohub,2013-07-23 00:16:00,
2013-07-22 20:21:00,70.2,66.7,28.20,South,180,2.0,5.0,89,0.12,,,0.12,meteohub,2013-07-23 00:21:00,
2013-07-22 20:27:00,69.6,66.6,28.20,SW,225,2.0,5.0,90,0.12,,,0.12,meteohub,2013-07-23 00:27:00,
2013-07-22 20:32:00,69.4,66.7,28.21,SE,135,2.0,5.0,91,0.12,,,0.12,meteohub,2013-07-23 00:32:00,
2013-07-22 20:37:00,69.4,67.1,28.21,South,180,2.0,4.0,92,0.12,,,0.12,meteohub,2013-07-23 00:37:00,
2013-07-22 20:42:00,69.3,66.9,28.20,SW,225,3.0,4.0,92,0.12,,,0.12,meteohub,2013-07-23 00:42:00,
2013-07-22 20:47:00,69.3,66.9,28.21,SSE,158,3.0,4.0,92,0.12,,,0.12,meteohub,2013-07-23 00:47:00,
2013-07-22 20:52:00,69.3,67.1,28.20,South,180,2.0,4.0,93,0.12,,,0.12,meteohub,2013-07-23 00:52:00,
2013-07-22 20:57:00,69.3,67.1,28.20,SE,135,0.0,4.0,93,0.12,,,0.12,meteohub,2013-07-23 00:57:00,
2013-07-22 21:02:00,69.1,66.9,28.21,East,90,3.0,4.0,93,0.12,,,0.12,meteohub,2013-07-23 01:02:00,
2013-07-22 21:07:00,69.1,67.3,28.21,East,90,1.0,4.0,94,0.07,,,0.12,meteohub,2013-07-23 01:07:00,
2013-07-22 21:12:00,69.1,67.3,28.21,South,180,1.0,3.0,94,0.04,,,0.13,meteohub,2013-07-23 01:12:00,
2013-07-22 21:17:00,69.1,67.3,28.21,SE,135,2.0,4.0,94,0.01,,,0.13,meteohub,2013-07-23 01:17:00,
2013-07-22 21:22:00,69.1,67.3,28.21,South,180,2.0,4.0,94,0.01,,,0.13,meteohub,2013-07-23 01:22:00,
2013-07-22 21:27:00,69.1,67.6,28.22,South,180,1.0,4.0,95,0.01,,,0.13,meteohub,2013-07-23 01:27:00,
2013-07-22 21:32:00,69.1,67.6,28.21,South,180,0.0,3.0,95,0.01,,,0.13,meteohub,2013-07-23 01:32:00,
2013-07-22 21:37:00,69.1,67.6,28.21,SE,135,2.0,2.0,95,0.01,,,0.13,meteohub,2013-07-23 01:37:00,
2013-07-22 21:42:00,69.1,67.6,28.21,SE,135,2.0,2.0,95,0.01,,,0.13,meteohub,2013-07-23 01:42:00,
2013-07-22 21:47:00,69.1,67.6,28.21,NE,45,0.0,2.0,95,0.01,,,0.13,meteohub,2013-07-23 01:47:00,
2013-07-22 21:52:00,69.1,67.6,28.21,South,180,0.0,2.0,95,0.01,,,0.13,meteohub,2013-07-23 01:52:00,
2013-07-22 21:57:00,69.1,67.6,28.20,East,90,1.0,2.0,95,0.01,,,0.13,meteohub,2013-07-23 01:57:00,
2013-07-22 22:02:00,69.1,67.6,28.20,South,180,2.0,4.0,95,0.01,,,0.13,meteohub,2013-07-23 02:02:00,
2013-07-22 22:07:00,69.1,67.6,28.20,SW,225,3.0,4.0,95,0.01,,,0.13,meteohub,2013-07-23 02:07:00,
2013-07-22 22:12:00,68.7,67.3,28.20,West,270,3.0,5.0,95,0.00,,,0.13,meteohub,2013-07-23 02:12:00,
2013-07-22 22:18:00,68.4,66.9,28.20,SSW,203,2.0,5.0,95,0.00,,,0.13,meteohub,2013-07-23 02:18:00,
2013-07-22 22:23:00,68.2,66.7,28.20,South,180,2.0,5.0,95,0.00,,,0.13,meteohub,2013-07-23 02:23:00,
2013-07-22 22:28:00,67.8,66.6,28.19,South,180,4.0,4.0,96,0.00,,,0.13,meteohub,2013-07-23 02:28:00,
2013-07-22 22:33:00,67.6,66.4,28.19,East,90,4.0,4.0,96,0.00,,,0.13,meteohub,2013-07-23 02:33:00,
2013-07-22 22:38:00,67.5,66.0,28.19,SE,135,4.0,5.0,95,0.00,,,0.13,meteohub,2013-07-23 02:38:00,
2013-07-22 22:43:00,67.1,65.7,28.19,South,180,2.0,7.0,95,0.01,,,0.14,meteohub,2013-07-23 02:43:00,
2013-07-22 22:48:00,66.9,65.5,28.19,SE,135,2.0,7.0,95,0.01,,,0.14,meteohub,2013-07-23 02:48:00,
2013-07-22 22:53:00,66.6,65.1,28.19,SW,225,2.0,7.0,95,0.01,,,0.14,meteohub,2013-07-23 02:53:00,
2013-07-22 22:58:00,66.4,64.9,28.19,South,180,2.0,7.0,95,0.01,,,0.14,meteohub,2013-07-23 02:58:00,
2013-07-22 23:03:00,66.2,64.8,28.19,South,180,2.0,3.0,95,0.04,,,0.15,meteohub,2013-07-23 03:03:00,
2013-07-22 23:08:00,65.8,64.6,28.19,South,180,2.0,3.0,96,0.11,,,0.24,meteohub,2013-07-23 03:08:00,
2013-07-22 23:14:00,65.7,64.4,28.19,South,180,3.0,3.0,96,0.19,,,0.32,meteohub,2013-07-23 03:14:00,
2013-07-22 23:19:00,65.5,64.2,28.20,SW,225,2.0,4.0,96,0.24,,,0.35,meteohub,2013-07-23 03:19:00,
2013-07-22 23:24:00,65.3,64.4,28.20,SE,135,2.0,4.0,97,0.26,,,0.39,meteohub,2013-07-23 03:24:00,
2013-07-22 23:29:00,65.3,64.4,28.19,South,180,1.0,4.0,97,0.28,,,0.41,meteohub,2013-07-23 03:29:00,
2013-07-22 23:34:00,65.3,64.4,28.20,SW,225,2.0,3.0,97,0.32,,,0.44,meteohub,2013-07-23 03:34:00,
2013-07-22 23:39:00,65.3,64.4,28.20,South,180,2.0,4.0,97,0.35,,,0.48,meteohub,2013-07-23 03:39:00,
2013-07-22 23:44:00,65.3,64.4,28.20,SE,135,1.0,4.0,97,0.41,,,0.56,meteohub,2013-07-23 03:44:00,
2013-07-22 23:49:00,65.1,64.6,28.20,East,90,2.0,4.0,98,0.47,,,0.61,meteohub,2013-07-23 03:49:00,
2013-07-22 23:54:00,64.9,64.4,28.19,West,270,2.0,4.0,98,0.59,,,0.72,meteohub,2013-07-23 03:54:00,
2013-07-22 23:59:00,64.8,64.2,28.19,ENE,68,2.0,3.0,98,0.69,,,0.81,meteohub,2013-07-23 03:59:00,